FW2405 Weather Reports


Display with metric or nautical units.
time (UTC)temp
F
wind
direction
speed
MPH
gust
MPH
rain 1hr
in
rain 24hr
in
rain mn
in
humidity
%
barometer
mb
20181214214346 45 156 0.0 1.0 0.07 0.07 0.07 92 982.7
20181214213845 45 156 0.0 1.0 0.07 0.07 0.07 92 982.7
20181214213342 45 154 0.0 3.0 0.07 0.07 0.07 92 982.5
20181214212842 46 12 0.0 3.0 0.07 0.07 0.07 91 982.6
20181214212342 46 234 0.0 2.0 0.06 0.06 0.06 90 982.6
20181214211843 47 261 0.0 2.0 0.05 0.05 0.05 89 982.5
20181214210839 48 210 1.0 5.0 0.01 0.01 0.02 85 982.2
20181214210338 50 284 1.0 8.0 0.01 0.01 0.01 81 981.8
20181214205838 51 200 2.0 8.0 0.00 0.00 0.00 77 981.4
20181214205338 52 272 2.0 11.0 0.00 0.00 0.00 73 980.9
20181214204838 53 263 3.0 11.0 0.00 0.00 0.00 70 980.3
20181214204338 54 267 3.0 8.0 0.00 0.00 0.00 67 979.8
20181214203834 55 250 2.0 11.0 0.00 0.00 0.00 62 979.2
20181214203335 55 328 1.0 11.0 0.00 0.00 0.00 57 978.8
20181214202834 55 73 0.0 1.0 0.00 0.00 0.00 58 978.2
20181214202332 54 73 0.0 1.0 0.00 0.00 0.00 59 977.9
20181214201830 53 69 0.0 1.0 0.00 0.00 0.00 62 977.7
20181214201330 53 65 0.0 2.0 0.00 0.00 0.00 66 977.5
20181214200825 52 65 0.0 2.0 0.00 0.00 0.00 67 977.3
20181214200322 51 144 0.0 1.0 0.00 0.00 0.00 73 977.2
20181214195823 51 144 0.0 1.0 0.00 0.00 0.00 71 977.1
20181214195320 50 162 0.0 1.0 0.00 0.00 0.00 73 977.0
20181214194819 50 162 0.0 1.0 0.00 0.00 0.00 75 976.9
20181214194319 50 162 0.0 1.0 0.00 0.00 0.00 73 977.0
20181214193818 49 162 0.0 2.0 0.00 0.00 0.00 75 977.0
20181214193318 49 162 0.0 2.0 0.00 0.00 0.00 74 977.0
20181214192818 49 146 0.0 1.0 0.00 0.00 0.00 74 977.1
20181214192317 48 146 0.0 1.0 0.00 0.00 0.00 73 977.1
20181214191815 48 146 0.0 1.0 0.00 0.00 0.00 74 977.2
20181214191314 47 146 0.0 0.0 0.00 0.00 0.00 75 977.2
20181214190814 47 146 0.0 0.0 0.00 0.00 0.00 76 977.4
20181214190315 47 146 0.0 0.0 0.00 0.00 0.00 80 977.4
20181214185812 47 146 0.0 0.0 0.00 0.00 0.00 79 977.6
20181214185313 47 146 0.0 0.0 0.00 0.00 0.00 79 977.7
20181214184811 46 146 0.0 1.0 0.00 0.00 0.00 79 977.7
20181214184308 46 146 0.0 1.0 0.00 0.00 0.00 78 977.7
20181214183758 46 146 0.0 1.0 0.00 0.00 0.00 79 977.8
20181214183257 46 147 0.0 1.0 0.00 0.00 0.00 79 977.6
20181214182756 45 147 0.0 1.0 0.00 0.00 0.00 78 977.7
20181214182252 45 147 0.0 1.0 0.00 0.00 0.00 78 977.4
20181214181752 45 147 0.0 1.0 0.00 0.00 0.00 79 977.7
20181214181252 45 146 0.0 1.0 0.00 0.00 0.00 78 977.4
20181214180750 44 146 0.0 1.0 0.00 0.00 0.00 80 977.6
20181214180249 44 146 0.0 1.0 0.00 0.00 0.00 79 977.6
20181214175748 43 146 0.0 2.0 0.00 0.00 0.00 80 977.6
20181214175243 43 155 0.0 2.0 0.00 0.00 0.00 80 977.6
20181214174742 42 152 0.0 1.0 0.00 0.00 0.00 80 977.6
20181214174240 42 152 0.0 1.0 0.00 0.00 0.00 82 977.6
20181214173738 42 152 0.0 1.0 0.00 0.00 0.00 81 977.6
20181214173238 42 152 0.0 1.0 0.00 0.00 0.00 82 977.5
20181214172736 42 152 0.0 0.0 0.00 0.00 0.00 83 977.4
20181214172234 42 152 0.0 0.0 0.00 0.00 0.00 84 977.4
20181214171734 42 152 0.0 0.0 0.00 0.00 0.00 81 977.3
20181214171232 42 152 0.0 0.0 0.00 0.00 0.00 80 977.4
20181214170731 43 152 0.0 0.0 0.00 0.00 0.00 83 977.8
20181214170230 43 152 0.0 0.0 0.00 0.00 0.00 82 977.7
20181214165728 43 152 0.0 1.0 0.00 0.00 0.00 79 977.7
20181214165227 42 152 0.0 1.0 0.00 0.00 0.00 80 977.8
20181214164726 42 152 0.0 1.0 0.00 0.00 0.00 80 977.7
20181214164226 42 152 0.0 1.0 0.00 0.00 0.00 79 977.9
20181214163726 42 152 0.0 1.0 0.00 0.00 0.00 82 978.0
20181214163226 42 152 0.0 0.0 0.00 0.00 0.00 81 977.9
20181214162726 42 152 0.0 1.0 0.00 0.00 0.00 81 978.1
20181214162226 42 152 0.0 1.0 0.00 0.00 0.00 81 978.2
20181214161724 42 152 0.0 1.0 0.00 0.00 0.00 82 978.2
20181214161224 42 152 0.0 1.0 0.00 0.00 0.00 78 978.1
20181214160722 42 152 0.0 1.0 0.00 0.00 0.00 82 978.4
20181214160222 43 152 0.0 1.0 0.00 0.00 0.00 78 978.4
20181214155720 43 152 0.0 2.0 0.00 0.00 0.00 78 978.5
20181214155218 43 152 0.0 2.0 0.00 0.00 0.00 77 978.5
20181214154718 43 150 0.0 2.0 0.00 0.00 0.00 77 978.8
20181214154218 43 148 0.0 1.0 0.00 0.00 0.00 78 978.6
20181214153718 43 149 0.0 1.0 0.00 0.00 0.00 78 978.8
20181214153218 43 149 0.0 1.0 0.00 0.00 0.00 79 978.8
20181214152719 43 149 0.0 1.0 0.00 0.00 0.00 79 978.9
20181214152218 42 149 0.0 1.0 0.00 0.00 0.00 79 979.0
20181214151719 42 149 0.0 1.0 0.00 0.00 0.00 80 979.1
20181214151218 42 149 0.0 1.0 0.00 0.00 0.00 81 979.2
20181214150718 42 149 0.0 1.0 0.00 0.00 0.00 81 979.2
20181214150216 42 149 0.0 1.0 0.00 0.00 0.00 81 979.4
20181214145716 42 149 0.0 1.0 0.00 0.00 0.00 81 979.5
20181214145214 42 149 0.0 1.0 0.00 0.00 0.00 81 979.6
20181214144714 42 150 0.0 1.0 0.00 0.00 0.00 82 979.8
20181214144215 42 157 0.0 1.0 0.00 0.00 0.00 81 979.9
20181214143714 42 148 0.0 2.0 0.00 0.00 0.00 82 979.9
20181214143214 42 148 0.0 2.0 0.00 0.00 0.00 81 979.9
20181214142712 42 152 0.0 1.0 0.00 0.00 0.00 82 980.0
20181214142213 42 153 0.0 1.0 0.00 0.00 0.00 82 980.0
20181214141712 42 151 0.0 2.0 0.00 0.00 0.00 82 980.0
20181214141212 42 151 0.0 2.0 0.00 0.00 0.00 82 980.2
20181214140712 42 159 0.0 1.0 0.00 0.00 0.00 83 980.3
20181214140212 42 159 0.0 1.0 0.00 0.00 0.00 83 980.4
20181214135712 41 159 0.0 1.0 0.00 0.00 0.00 83 980.5
20181214135212 41 159 0.0 1.0 0.00 0.00 0.00 83 980.5
20181214134712 41 159 0.0 1.0 0.00 0.00 0.00 84 980.8
20181214134210 41 159 0.0 1.0 0.00 0.00 0.00 84 980.9
20181214133710 41 159 0.0 1.0 0.00 0.00 0.00 84 981.1
20181214133208 41 160 0.0 2.0 0.00 0.00 0.00 83 981.2
20181214132708 41 159 0.0 2.0 0.00 0.00 0.00 84 981.3
20181214132208 41 160 0.0 1.0 0.00 0.00 0.00 83 981.3
20181214131708 40 160 0.0 1.0 0.00 0.00 0.00 85 981.2
20181214131208 40 159 0.0 1.0 0.00 0.00 0.00 84 981.3
20181214130709 40 160 0.0 1.0 0.00 0.00 0.00 86 981.4
20181214130208 40 160 0.0 1.0 0.00 0.00 0.00 86 981.6
20181214125709 40 160 0.0 2.0 0.00 0.00 0.00 86 981.9
20181214125206 40 160 0.0 2.0 0.00 0.00 0.00 86 982.0
20181214124707 40 156 0.0 1.0 0.00 0.00 0.00 86 982.1
20181214124206 40 156 0.0 1.0 0.00 0.00 0.00 86 982.5
20181214123706 40 156 0.0 1.0 0.00 0.00 0.00 86 982.6
20181214123205 40 156 0.0 1.0 0.00 0.00 0.00 87 982.8
20181214122704 40 156 0.0 1.0 0.00 0.00 0.00 87 982.9
20181214122204 40 156 0.0 1.0 0.00 0.00 0.00 87 983.0
20181214121704 40 156 0.0 1.0 0.00 0.00 0.00 87 983.0
20181214121200 40 159 0.0 2.0 0.00 0.00 0.00 88 983.2
20181214120658 40 155 0.0 2.0 0.00 0.00 0.00 88 983.3
20181214120156 40 153 0.0 1.0 0.00 0.00 0.00 88 983.5
20181214115656 40 153 0.0 1.0 0.00 0.00 0.00 88 983.6
20181214115155 40 156 0.0 1.0 0.00 0.00 0.00 88 983.7
20181214114656 40 156 0.0 1.0 0.00 0.00 0.00 87 983.9
20181214114156 40 156 0.0 1.0 0.00 0.00 0.00 87 984.1
20181214113655 40 156 0.0 1.0 0.00 0.00 0.00 87 984.3
20181214113156 40 133 0.0 1.0 0.00 0.00 0.00 87 984.2
20181214112657 40 133 0.0 2.0 0.00 0.00 0.00 87 984.4
20181214112156 40 94 0.0 2.0 0.00 0.00 0.00 86 984.4
20181214111656 40 160 0.0 1.0 0.00 0.00 0.00 87 984.6
20181214111158 40 160 0.0 1.0 0.00 0.00 0.00 88 984.7
20181214110656 40 161 0.0 1.0 0.00 0.00 0.00 87 984.8
20181214110152 40 145 0.0 2.0 0.00 0.00 0.00 88 985.0
20181214105652 40 145 0.0 2.0 0.00 0.00 0.00 88 985.0
20181214105152 40 152 0.0 2.0 0.00 0.00 0.00 88 985.1
20181214104652 40 165 0.0 2.0 0.00 0.00 0.00 89 985.2
20181214104152 40 155 0.0 2.0 0.00 0.00 0.00 89 985.3
20181214103651 40 155 0.0 3.0 0.00 0.00 0.00 89 985.4
20181214103152 39 155 0.0 3.0 0.00 0.00 0.00 90 985.5
20181214102651 39 57 0.0 2.0 0.00 0.00 0.00 91 985.3
20181214102152 39 152 0.0 2.0 0.00 0.00 0.00 91 985.6
20181214101651 39 159 0.0 1.0 0.00 0.00 0.00 92 985.7
20181214101152 38 159 0.0 1.0 0.00 0.00 0.00 92 985.7
20181214100651 38 160 0.0 1.0 0.00 0.00 0.00 93 985.8
20181214100152 38 160 0.0 1.0 0.00 0.00 0.00 93 985.9
20181214095652 38 160 0.0 2.0 0.00 0.00 0.00 93 985.9
20181214095151 38 160 0.0 2.0 0.00 0.00 0.00 93 985.9
20181214094652 38 159 0.0 2.0 0.00 0.00 0.00 93 986.0
20181214094151 38 163 0.0 2.0 0.00 0.00 0.00 93 986.2
20181214093653 38 161 0.0 2.0 0.00 0.00 0.00 94 986.3
20181214092651 38 174 0.0 0.0 0.00 0.00 0.00 95 986.4
20181214092152 38 174 0.0 0.0 0.00 0.00 0.00 95 986.5
20181214091652 38 174 0.0 0.0 0.00 0.00 0.00 95 986.7
20181214091152 38 174 0.0 0.0 0.00 0.00 0.00 95 986.7
20181214090652 38 174 0.0 0.0 0.00 0.00 0.00 95 986.7
20181214090153 38 174 0.0 0.0 0.00 0.00 0.00 95 986.8
20181214085652 38 174 0.0 1.0 0.00 0.00 0.00 95 986.9
20181214085152 38 174 0.0 1.0 0.00 0.00 0.00 95 986.9
20181214084654 38 174 0.0 0.0 0.00 0.00 0.00 94 987.1
20181214084151 38 174 0.0 0.0 0.00 0.00 0.00 94 987.1
20181214083652 38 174 0.0 0.0 0.00 0.00 0.00 94 987.2
20181214083152 38 174 0.0 0.0 0.00 0.00 0.00 94 987.3
20181214082652 38 174 0.0 0.0 0.00 0.00 0.00 93 987.3
20181214082152 39 174 0.0 0.0 0.00 0.00 0.00 93 987.2
20181214081652 39 174 0.0 1.0 0.00 0.00 0.00 94 987.2
20181214081152 39 174 0.0 1.0 0.00 0.00 0.00 94 987.4
20181214080652 39 174 0.0 0.0 0.00 0.00 0.00 94 987.5
20181214080149 39 174 0.0 1.0 0.00 0.00 0.00 94 987.5
20181214075649 40 174 0.0 1.0 0.00 0.00 0.00 94 987.5
20181214075149 40 174 0.0 0.0 0.00 0.00 0.00 94 987.6
20181214074647 40 174 0.0 1.0 0.00 0.00 0.00 94 987.5
20181214074145 40 174 0.0 1.0 0.00 0.00 0.00 94 987.6
20181214073645 40 174 0.0 1.0 0.00 0.00 0.00 95 987.8
20181214073143 40 174 0.0 1.0 0.00 0.00 0.00 95 987.9
20181214072643 40 174 0.0 0.0 0.00 0.00 0.00 94 988.0
20181214072137 40 174 0.0 1.0 0.00 0.00 0.00 94 988.0
20181214071635 40 174 0.0 1.0 0.00 0.00 0.00 95 988.1
20181214071135 39 174 0.0 1.0 0.00 0.00 0.00 95 988.3
20181214070634 39 176 0.0 1.0 0.00 0.00 0.00 95 988.1
20181214070133 39 83 0.0 1.0 0.00 0.00 0.00 94 988.3
20181214065631 40 343 0.0 1.0 0.00 0.00 0.00 94 988.5
20181214065131 40 343 0.0 0.0 0.00 0.00 0.00 95 988.3
20181214064631 40 343 0.0 1.0 0.00 0.00 0.00 95 988.4
20181214064130 40 343 0.0 1.0 0.00 0.00 0.00 95 988.5
20181214063631 40 343 0.0 1.0 0.00 0.00 0.00 95 988.5
20181214063130 40 343 0.0 0.0 0.00 0.00 0.00 95 988.5
20181214062631 40 343 0.0 0.0 0.00 0.00 0.00 95 988.6
20181214062131 40 343 0.0 0.0 0.00 0.00 0.00 95 988.5
20181214061631 40 343 0.0 0.0 0.00 0.00 0.00 95 988.6
20181214061131 40 343 0.0 0.0 0.00 0.00 0.00 94 988.7
20181214060631 40 343 0.0 0.0 0.00 0.00 0.00 94 988.6
20181214060131 40 343 0.0 0.0 0.00 0.00 0.00 94 988.6
20181214055631 40 343 0.0 0.0 0.00 0.00 0.00 94 988.7
20181214055131 40 343 0.0 0.0 0.00 0.00 0.00 94 988.8
20181214054631 40 343 0.0 0.0 0.00 0.00 0.00 93 988.9
20181214054131 40 343 0.0 0.0 0.00 0.00 0.00 93 989.0
20181214053630 40 343 0.0 0.0 0.00 0.00 0.00 93 989.0
20181214053131 40 343 0.0 0.0 0.00 0.00 0.00 93 989.0
20181214052630 41 343 0.0 0.0 0.00 0.00 0.00 93 989.1
20181214052131 41 343 0.0 0.0 0.00 0.00 0.00 93 989.2
20181214051630 41 343 0.0 0.0 0.00 0.00 0.00 93 989.3
20181214051131 41 343 0.0 0.0 0.00 0.00 0.00 93 989.3
20181214050630 41 343 0.0 0.0 0.00 0.00 0.00 93 989.2
20181214050131 42 343 0.0 0.0 0.00 0.00 0.00 93 989.3
20181214045630 42 343 0.0 0.0 0.00 0.00 0.00 93 989.4
20181214045131 42 343 0.0 0.0 0.00 0.00 0.00 93 989.6
20181214044631 42 343 0.0 0.0 0.00 0.00 0.00 92 989.5
20181214044131 42 343 0.0 0.0 0.00 0.00 0.00 92 989.6
20181214043631 42 343 0.0 0.0 0.00 0.00 0.00 92 989.7
20181214043130 42 343 0.0 0.0 0.00 0.00 0.00 92 989.8
20181214042631 42 343 0.0 0.0 0.00 0.00 0.00 92 989.8
20181214042131 42 343 0.0 0.0 0.00 0.00 0.00 92 990.0
20181214041631 42 343 0.0 0.0 0.00 0.00 0.00 92 990.0
20181214041131 42 343 0.0 0.0 0.00 0.00 0.00 92 990.1
20181214040631 42 343 0.0 0.0 0.00 0.00 0.00 91 990.1
20181214040131 43 343 0.0 0.0 0.00 0.00 0.00 91 990.1
20181214035631 43 343 0.0 0.0 0.00 0.00 0.00 91 990.2
20181214035131 43 343 0.0 0.0 0.00 0.00 0.00 90 990.1
20181214034630 43 343 0.0 0.0 0.00 0.00 0.00 91 990.2
20181214034131 43 343 0.0 0.0 0.00 0.00 0.00 91 990.3
20181214033631 43 343 0.0 0.0 0.00 0.00 0.00 91 990.3
20181214033131 43 343 0.0 0.0 0.00 0.00 0.00 90 990.3
20181214032631 43 343 0.0 0.0 0.00 0.00 0.00 90 990.2
20181214032130 44 343 0.0 0.0 0.00 0.00 0.00 90 990.2
20181214031631 44 343 0.0 0.0 0.00 0.00 0.00 90 990.1
20181214031130 44 343 0.0 0.0 0.00 0.00 0.00 89 990.2
20181214030631 44 343 0.0 1.0 0.00 0.00 0.00 89 990.1
20181214030128 44 343 0.0 1.0 0.00 0.00 0.00 89 990.2
20181214025629 44 343 0.0 0.0 0.00 0.00 0.00 88 990.2
20181214025127 44 343 0.0 0.0 0.00 0.00 0.00 88 990.3
20181214024626 45 343 0.0 0.0 0.00 0.00 0.00 87 990.2
20181214024127 45 343 0.0 0.0 0.00 0.00 0.00 87 990.3
20181214023624 45 343 0.0 0.0 0.00 0.00 0.00 87 990.4
20181214023123 45 343 0.0 0.0 0.00 0.00 0.00 86 990.4
20181214022621 45 343 0.0 0.0 0.00 0.00 0.00 86 990.5
20181214022121 45 343 0.0 0.0 0.00 0.00 0.00 86 990.4
20181214021619 45 343 0.0 0.0 0.00 0.00 0.00 86 990.4
20181214021117 45 343 0.0 0.0 0.00 0.00 0.00 86 990.4
20181214020616 46 343 0.0 0.0 0.00 0.00 0.00 85 990.5
20181214020115 46 343 0.0 0.0 0.00 0.00 0.00 85 990.5
20181214015614 46 343 0.0 0.0 0.00 0.00 0.00 85 990.6
20181214015109 46 343 0.0 0.0 0.00 0.00 0.00 85 990.8
20181214014607 46 343 0.0 0.0 0.00 0.00 0.00 84 990.8
20181214014106 46 343 0.0 0.0 0.00 0.00 0.00 84 990.9
20181214013607 46 343 0.0 0.0 0.00 0.00 0.00 83 990.9
20181214013106 46 343 0.0 0.0 0.00 0.00 0.00 83 990.9
20181214012606 47 343 0.0 0.0 0.00 0.00 0.00 84 990.9
20181214012107 47 343 0.0 0.0 0.00 0.00 0.00 83 991.0
20181214011606 47 343 0.0 0.0 0.00 0.00 0.00 83 991.1
20181214011106 47 343 0.0 0.0 0.00 0.00 0.00 82 991.1
20181214010607 47 343 0.0 0.0 0.00 0.00 0.00 82 991.1
20181214010107 47 343 0.0 0.0 0.00 0.00 0.00 82 991.1
20181214005605 47 343 0.0 0.0 0.00 0.00 0.00 81 991.2
20181214005105 48 343 0.0 0.0 0.00 0.00 0.00 82 991.3
20181214004604 48 343 0.0 0.0 0.00 0.00 0.00 81 991.3
20181214004106 48 343 0.0 0.0 0.00 0.00 0.00 80 991.4
20181214003605 48 343 0.0 0.0 0.00 0.00 0.00 81 991.4
20181214003103 48 343 0.0 0.0 0.00 0.00 0.00 80 991.5
20181214002602 48 343 0.0 0.0 0.00 0.00 0.00 82 991.6
20181214002056 48 343 0.0 0.0 0.00 0.00 0.00 82 991.6
20181214001555 49 343 0.0 0.0 0.00 0.00 0.00 81 991.6
20181214001054 49 343 0.0 0.0 0.00 0.00 0.00 81 991.6
20181214000553 49 343 0.0 0.0 0.00 0.00 0.00 81 991.6
20181214000050 49 343 0.0 0.0 0.00 0.00 0.00 80 991.6
20181213235551 49 343 0.0 0.0 0.00 0.00 0.00 79 991.7
20181213235048 49 343 0.0 0.0 0.00 0.00 0.00 79 991.7
20181213234547 50 343 0.0 0.0 0.00 0.00 0.00 78 991.8
20181213234046 50 343 0.0 0.0 0.00 0.00 0.00 78 991.9
20181213233547 50 343 0.0 0.0 0.00 0.00 0.00 77 991.9
20181213233048 50 343 0.0 0.0 0.00 0.00 0.00 77 991.9
20181213232545 50 343 0.0 0.0 0.00 0.00 0.00 76 992.0
20181213232045 50 343 0.0 0.0 0.00 0.00 0.00 76 992.2
20181213231543 50 343 0.0 0.0 0.00 0.00 0.00 76 992.3
20181213231044 50 343 0.0 0.0 0.00 0.00 0.00 76 992.3
20181213230541 50 343 0.0 0.0 0.00 0.00 0.00 76 992.3
20181213230040 50 343 0.0 0.0 0.00 0.00 0.00 76 992.3
20181213225539 50 343 0.0 0.0 0.00 0.00 0.00 76 992.4
20181213225039 50 343 0.0 0.0 0.00 0.00 0.00 76 992.5
20181213224538 51 343 0.0 0.0 0.00 0.00 0.00 77 992.5
20181213224039 51 343 0.0 1.0 0.00 0.00 0.00 75 992.5
20181213223537 51 343 0.0 1.0 0.00 0.00 0.00 75 992.7
20181213223034 50 343 0.0 1.0 0.00 0.00 0.00 75 992.8
20181213222534 50 343 0.0 0.0 0.00 0.00 0.00 78 992.8
20181213222033 50 343 0.0 0.0 0.00 0.00 0.00 74 992.8
20181213221532 50 343 0.0 0.0 0.00 0.00 0.00 77 993.0
20181213221027 50 343 0.0 1.0 0.00 0.00 0.00 75 993.0
20181213220524 50 343 0.0 1.0 0.00 0.00 0.00 75 993.1
20181213220025 50 343 0.0 0.0 0.00 0.00 0.00 76 993.1
20181213215522 50 343 0.0 0.0 0.00 0.00 0.00 75 993.2
20181213215021 50 343 0.0 0.0 0.00 0.00 0.00 76 993.3